Time,TemperatureF,DewpointF,PressureIn,WindDirection,WindDirectionDegrees,WindSpeedMPH,WindSpeedGustMPH,Humidity,HourlyPrecipIn,Conditions,Clouds,dailyrainin,SoftwareType,DateUTC
2013-03-07 00:02:00,35.0,26.0,30.12,NNW,338,3.0,10.0,70,0.00,,,0.05,,2013-03-07 05:02:00,
2013-03-07 00:12:00,35.0,26.0,30.12,NNW,338,3.0,10.0,70,0.00,,,0.05,,2013-03-07 05:12:00,
2013-03-07 00:22:00,35.0,26.0,30.12,West,276,2.0,6.0,70,0.00,,,0.01,,2013-03-07 05:22:00,
2013-03-07 00:32:00,35.0,27.0,30.12,NW,311,3.0,9.0,71,0.00,,,0.01,,2013-03-07 05:32:00,
2013-03-07 00:42:00,35.0,27.0,30.12,NW,311,3.0,9.0,71,0.00,,,0.01,,2013-03-07 05:42:00,
2013-03-07 00:52:00,35.0,26.0,30.12,NNW,342,3.0,6.0,70,0.00,,,0.01,,2013-03-07 05:52:00,
2013-03-07 01:01:00,35.0,27.0,30.13,North,5,2.0,8.0,71,0.00,,,0.01,,2013-03-07 06:01:00,
2013-03-07 01:11:00,35.0,27.0,30.13,North,5,2.0,8.0,71,0.00,,,0.01,,2013-03-07 06:11:00,
2013-03-07 01:21:00,35.0,26.0,30.14,NNW,347,3.0,7.0,70,0.00,,,0.01,,2013-03-07 06:21:00,
2013-03-07 01:32:00,35.0,26.0,30.14,WNW,300,3.0,6.0,70,0.00,,,0.01,,2013-03-07 06:32:00,
2013-03-07 01:42:00,35.0,26.0,30.14,NW,305,1.0,6.0,70,0.00,,,0.01,,2013-03-07 06:42:00,
2013-03-07 01:52:00,35.0,26.0,30.14,NW,305,1.0,6.0,70,0.00,,,0.01,,2013-03-07 06:52:00,
2013-03-07 02:01:00,35.0,26.0,30.14,West,271,1.0,10.0,70,0.00,,,0.01,,2013-03-07 07:01:00,
2013-03-07 02:11:00,35.0,26.0,30.14,West,271,1.0,10.0,70,0.00,,,0.01,,2013-03-07 07:11:00,
2013-03-07 02:22:00,35.0,26.0,30.14,NW,315,2.0,6.0,69,0.00,,,0.00,,2013-03-07 07:22:00,
2013-03-07 02:32:00,35.0,26.0,30.14,NE,36,2.0,7.0,69,0.00,,,0.00,,2013-03-07 07:32:00,
2013-03-07 02:43:00,35.0,26.0,30.14,NE,36,2.0,7.0,69,0.00,,,0.00,,2013-03-07 07:43:00,
2013-03-07 02:53:00,35.0,26.0,30.14,North,9,3.0,8.0,70,0.00,,,0.00,,2013-03-07 07:53:00,
2013-03-07 03:03:00,35.0,26.0,30.14,NW,311,2.0,5.0,70,0.00,,,0.00,,2013-03-07 08:03:00,
2013-03-07 03:12:00,35.0,26.0,30.14,NW,311,2.0,5.0,70,0.00,,,0.00,,2013-03-07 08:12:00,
2013-03-07 03:23:00,35.0,26.0,30.14,NW,319,4.0,6.0,69,0.00,,,0.00,,2013-03-07 08:23:00,
2013-03-07 03:33:00,35.0,26.0,30.14,NW,319,4.0,6.0,69,0.00,,,0.00,,2013-03-07 08:33:00,
2013-03-07 03:44:00,35.0,26.0,30.14,NW,319,4.0,6.0,69,0.00,,,0.00,,2013-03-07 08:44:00,
2013-03-07 03:54:00,35.0,26.0,30.14,NW,319,4.0,6.0,69,0.00,,,0.00,,2013-03-07 08:54:00,
2013-03-07 04:24:00,35.0,26.0,30.13,NW,323,4.0,8.0,70,0.00,,,0.00,,2013-03-07 09:24:00,
2013-03-07 04:33:00,35.0,26.0,30.13,North,349,6.0,10.0,69,0.00,,,0.00,,2013-03-07 09:33:00,
2013-03-07 04:43:00,35.0,26.0,30.13,North,349,6.0,10.0,69,0.00,,,0.00,,2013-03-07 09:43:00,
2013-03-07 04:53:00,35.0,26.0,30.14,NW,321,4.0,12.0,69,0.00,,,0.00,,2013-03-07 09:53:00,
2013-03-07 05:03:00,34.0,25.0,30.14,WNW,296,3.0,11.0,70,0.00,,,0.00,,2013-03-07 10:03:00,
2013-03-07 05:13:00,34.0,25.0,30.14,WNW,296,3.0,11.0,70,0.00,,,0.00,,2013-03-07 10:13:00,
2013-03-07 05:23:00,34.0,25.0,30.14,NW,311,4.0,13.0,70,0.00,,,0.00,,2013-03-07 10:23:00,
2013-03-07 05:33:00,34.0,25.0,30.15,NW,306,8.0,19.0,70,0.00,,,0.00,,2013-03-07 10:33:00,
2013-03-07 05:42:00,34.0,25.0,30.15,NW,306,8.0,19.0,70,0.00,,,0.00,,2013-03-07 10:42:00,
2013-03-07 05:53:00,34.0,26.0,30.15,WNW,286,5.0,11.0,71,0.00,,,0.00,,2013-03-07 10:53:00,
2013-03-07 06:03:00,34.0,26.0,30.15,NW,324,6.0,13.0,71,0.00,,,0.00,,2013-03-07 11:03:00,
2013-03-07 06:12:00,34.0,26.0,30.15,NW,324,6.0,13.0,71,0.00,,,0.00,,2013-03-07 11:12:00,
2013-03-07 06:23:00,34.0,25.0,30.16,NW,314,5.0,13.0,70,0.00,,,0.00,,2013-03-07 11:23:00,
2013-03-07 06:33:00,34.0,26.0,30.16,NW,324,7.0,13.0,71,0.00,,,0.00,,2013-03-07 11:33:00,
2013-03-07 06:43:00,34.0,26.0,30.16,NW,324,7.0,13.0,71,0.00,,,0.00,,2013-03-07 11:43:00,
2013-03-07 06:54:00,34.0,26.0,30.16,NW,313,6.0,13.0,71,0.00,,,0.00,,2013-03-07 11:54:00,
2013-03-07 07:03:00,34.0,25.0,30.17,WNW,288,4.0,12.0,70,0.00,,,0.00,,2013-03-07 12:03:00,
2013-03-07 07:12:00,34.0,25.0,30.17,WNW,288,4.0,12.0,70,0.00,,,0.00,,2013-03-07 12:12:00,
2013-03-07 07:23:00,34.0,25.0,30.18,NW,325,5.0,14.0,69,0.00,,,0.00,,2013-03-07 12:23:00,
2013-03-07 07:33:00,34.0,25.0,30.19,NNW,344,5.0,12.0,68,0.00,,,0.00,,2013-03-07 12:33:00,
2013-03-07 07:43:00,34.0,25.0,30.19,NNW,344,5.0,12.0,68,0.00,,,0.00,,2013-03-07 12:43:00,
2013-03-07 07:53:00,35.0,25.0,30.19,NW,322,6.0,12.0,67,0.00,,,0.00,,2013-03-07 12:53:00,
2013-03-07 08:03:00,35.0,25.0,30.21,NW,314,3.0,18.0,67,0.00,,,0.00,,2013-03-07 13:03:00,
2013-03-07 08:12:00,35.0,25.0,30.21,NW,314,3.0,18.0,67,0.00,,,0.00,,2013-03-07 13:12:00,
2013-03-07 08:23:00,35.0,25.0,30.21,NW,319,5.0,14.0,67,0.00,,,0.00,,2013-03-07 13:23:00,
2013-03-07 08:32:00,36.0,26.0,30.21,North,355,6.0,18.0,66,0.00,,,0.00,,2013-03-07 13:32:00,
2013-03-07 08:42:00,36.0,26.0,30.21,North,355,6.0,18.0,66,0.00,,,0.00,,2013-03-07 13:42:00,
2013-03-07 08:53:00,36.0,25.0,30.21,NW,323,4.0,15.0,65,0.00,,,0.00,,2013-03-07 13:53:00,
2013-03-07 09:02:00,37.0,26.0,30.21,WNW,302,5.0,13.0,65,0.00,,,0.00,,2013-03-07 14:02:00,
2013-03-07 09:03:00,37.0,26.0,30.22,WNW,303,7.0,12.0,63,0.00,,,0.00,,2013-03-07 14:03:00,
2013-03-07 09:12:00,37.0,26.0,30.21,WNW,302,5.0,13.0,65,0.00,,,0.00,,2013-03-07 14:12:00,
2013-03-07 09:23:00,37.0,26.0,30.22,WNW,303,7.0,12.0,63,0.00,,,0.00,,2013-03-07 14:23:00,
2013-03-07 09:33:00,37.0,26.0,30.22,WNW,303,7.0,12.0,63,0.00,,,0.00,,2013-03-07 14:33:00,
2013-03-07 09:42:00,37.0,26.0,30.22,WNW,303,7.0,12.0,63,0.00,,,0.00,,2013-03-07 14:42:00,
2013-03-07 09:54:00,37.0,26.0,30.22,WNW,303,7.0,12.0,63,0.00,,,0.00,,2013-03-07 14:54:00,
2013-03-07 10:23:00,40.0,26.0,30.23,WNW,295,6.0,14.0,57,0.00,,,0.00,,2013-03-07 15:23:00,
2013-03-07 10:33:00,40.0,25.0,30.23,NW,313,6.0,12.0,54,0.00,,,0.00,,2013-03-07 15:33:00,
2013-03-07 10:43:00,40.0,25.0,30.23,NW,313,6.0,12.0,54,0.00,,,0.00,,2013-03-07 15:43:00,
2013-03-07 10:53:00,41.0,26.0,30.22,WNW,300,5.0,10.0,54,0.00,,,0.00,,2013-03-07 15:53:00,
2013-03-07 11:02:00,41.0,26.0,30.22,NNW,344,3.0,8.0,54,0.00,,,0.00,,2013-03-07 16:02:00,
2013-03-07 11:13:00,41.0,26.0,30.22,NNW,344,3.0,8.0,54,0.00,,,0.00,,2013-03-07 16:13:00,
2013-03-07 11:23:00,41.0,26.0,30.23,NNE,13,5.0,12.0,55,0.00,,,0.00,,2013-03-07 16:23:00,
2013-03-07 11:33:00,41.0,26.0,30.23,NW,306,4.0,10.0,54,0.00,,,0.00,,2013-03-07 16:33:00,
2013-03-07 11:43:00,41.0,26.0,30.23,NW,306,4.0,10.0,54,0.00,,,0.00,,2013-03-07 16:43:00,
2013-03-07 11:53:00,42.0,26.0,30.23,NW,323,4.0,10.0,53,0.00,,,0.00,,2013-03-07 16:53:00,
2013-03-07 12:02:00,42.0,26.0,30.23,North,5,4.0,11.0,53,0.00,,,0.00,,2013-03-07 17:02:00,
2013-03-07 12:12:00,42.0,26.0,30.23,North,5,4.0,11.0,53,0.00,,,0.00,,2013-03-07 17:12:00,
2013-03-07 12:23:00,43.0,27.0,30.22,WNW,298,6.0,13.0,52,0.00,,,0.00,,2013-03-07 17:23:00,
2013-03-07 12:33:00,44.0,28.0,30.22,West,276,4.0,10.0,54,0.00,,,0.00,,2013-03-07 17:33:00,
2013-03-07 12:43:00,44.0,28.0,30.22,West,276,4.0,10.0,54,0.00,,,0.00,,2013-03-07 17:43:00,
2013-03-07 12:54:00,44.0,27.0,30.22,WNW,299,5.0,11.0,51,0.00,,,0.00,,2013-03-07 17:54:00,
2013-03-07 13:04:00,44.0,28.0,30.22,NNW,344,3.0,10.0,53,0.00,,,0.00,,2013-03-07 18:04:00,
2013-03-07 13:12:00,44.0,28.0,30.22,NNW,344,3.0,10.0,53,0.00,,,0.00,,2013-03-07 18:12:00,
2013-03-07 13:22:00,44.0,27.0,30.21,ENE,77,4.0,16.0,50,0.00,,,0.00,,2013-03-07 18:22:00,
2013-03-07 13:32:00,44.0,28.0,30.20,WNW,288,4.0,13.0,52,0.00,,,0.00,,2013-03-07 18:32:00,
2013-03-07 13:42:00,44.0,28.0,30.20,WNW,288,4.0,13.0,52,0.00,,,0.00,,2013-03-07 18:42:00,
2013-03-07 13:53:00,44.0,27.0,30.19,North,351,6.0,13.0,50,0.00,,,0.00,,2013-03-07 18:53:00,
2013-03-07 14:03:00,44.0,28.0,30.19,NW,307,5.0,13.0,52,0.00,,,0.00,,2013-03-07 19:03:00,
2013-03-07 14:12:00,44.0,26.0,30.19,NW,311,5.0,14.0,49,0.00,,,0.00,,2013-03-07 19:12:00,
2013-03-07 14:23:00,44.0,26.0,30.19,NW,311,5.0,14.0,49,0.00,,,0.00,,2013-03-07 19:23:00,
2013-03-07 14:35:00,44.0,27.0,30.19,North,5,5.0,12.0,50,0.00,,,0.00,,2013-03-07 19:35:00,
2013-03-07 14:43:00,44.0,27.0,30.19,North,5,5.0,12.0,50,0.00,,,0.00,,2013-03-07 19:43:00,
2013-03-07 14:53:00,44.0,26.0,30.19,WNW,290,6.0,12.0,49,0.00,,,0.00,,2013-03-07 19:53:00,
2013-03-07 15:02:00,44.0,27.0,30.19,NW,306,5.0,11.0,50,0.00,,,0.00,,2013-03-07 20:02:00,
2013-03-07 15:22:00,45.0,27.0,30.19,NW,322,5.0,11.0,50,0.00,,,0.00,,2013-03-07 20:22:00,
2013-03-07 15:33:00,45.0,27.0,30.19,NW,323,4.0,12.0,50,0.00,,,0.00,,2013-03-07 20:33:00,
2013-03-07 15:43:00,45.0,27.0,30.19,NW,323,4.0,12.0,50,0.00,,,0.00,,2013-03-07 20:43:00,
2013-03-07 15:54:00,45.0,27.0,30.19,WNW,300,5.0,9.0,49,0.00,,,0.00,,2013-03-07 20:54:00,
2013-03-07 16:03:00,44.0,27.0,30.20,North,350,6.0,12.0,50,0.00,,,0.00,,2013-03-07 21:03:00,
2013-03-07 16:12:00,44.0,27.0,30.20,North,350,6.0,12.0,50,0.00,,,0.00,,2013-03-07 21:12:00,
2013-03-07 16:23:00,44.0,27.0,30.20,NNW,336,6.0,10.0,50,0.00,,,0.00,,2013-03-07 21:23:00,
2013-03-07 16:33:00,44.0,27.0,30.20,NW,315,4.0,9.0,50,0.00,,,0.00,,2013-03-07 21:33:00,
2013-03-07 16:43:00,44.0,27.0,30.20,NW,315,4.0,9.0,50,0.00,,,0.00,,2013-03-07 21:43:00,
2013-03-07 16:53:00,44.0,27.0,30.20,North,349,3.0,10.0,51,0.00,,,0.00,,2013-03-07 21:53:00,
2013-03-07 17:02:00,44.0,27.0,30.21,ENE,69,3.0,7.0,51,0.00,,,0.00,,2013-03-07 22:02:00,
2013-03-07 17:12:00,44.0,27.0,30.21,ENE,69,3.0,7.0,51,0.00,,,0.00,,2013-03-07 22:12:00,
2013-03-07 17:22:00,43.0,25.0,30.22,ENE,76,5.0,9.0,48,0.00,,,0.00,,2013-03-07 22:22:00,
2013-03-07 17:32:00,43.0,26.0,30.22,North,355,3.0,8.0,50,0.00,,,0.00,,2013-03-07 22:32:00,
2013-03-07 17:43:00,43.0,26.0,30.22,North,355,3.0,8.0,50,0.00,,,0.00,,2013-03-07 22:43:00,
2013-03-07 17:54:00,42.0,25.0,30.23,North,355,3.0,6.0,50,0.00,,,0.00,,2013-03-07 22:54:00,
2013-03-07 18:03:00,41.0,26.0,30.23,NW,309,1.0,7.0,54,0.00,,,0.00,,2013-03-07 23:03:00,
2013-03-07 18:13:00,41.0,26.0,30.23,NW,309,1.0,7.0,54,0.00,,,0.00,,2013-03-07 23:13:00,
2013-03-07 18:22:00,40.0,26.0,30.23,North,355,1.0,7.0,56,0.00,,,0.00,,2013-03-07 23:22:00,
2013-03-07 18:33:00,38.0,24.0,30.24,NE,50,3.0,7.0,57,0.00,,,0.00,,2013-03-07 23:33:00,
2013-03-07 18:43:00,38.0,24.0,30.24,NE,50,3.0,7.0,57,0.00,,,0.00,,2013-03-07 23:43:00,
2013-03-07 18:54:00,37.0,24.0,30.24,ENE,66,3.0,9.0,58,0.00,,,0.00,,2013-03-07 23:54:00,
2013-03-07 19:04:00,37.0,24.0,30.25,NW,320,2.0,6.0,60,0.00,,,0.00,,2013-03-08 00:04:00,
2013-03-07 19:13:00,37.0,24.0,30.25,NW,320,2.0,6.0,60,0.00,,,0.00,,2013-03-08 00:13:00,
2013-03-07 19:23:00,36.0,24.0,30.26,NW,325,2.0,10.0,61,0.00,,,0.00,,2013-03-08 00:23:00,
2013-03-07 19:34:00,36.0,24.0,30.27,ENE,59,2.0,8.0,61,0.00,,,0.00,,2013-03-08 00:34:00,
2013-03-07 19:43:00,36.0,24.0,30.27,ENE,59,2.0,8.0,61,0.00,,,0.00,,2013-03-08 00:43:00,
2013-03-07 19:54:00,36.0,24.0,30.27,North,10,2.0,5.0,61,0.00,,,0.00,,2013-03-08 00:54:00,
2013-03-07 20:02:00,35.0,23.0,30.28,NNE,31,2.0,4.0,62,0.00,,,0.00,,2013-03-08 01:02:00,
2013-03-07 20:11:00,35.0,23.0,30.28,NNE,31,2.0,4.0,62,0.00,,,0.00,,2013-03-08 01:11:00,
2013-03-07 20:22:00,35.0,23.0,30.28,NNW,341,3.0,8.0,62,0.00,,,0.00,,2013-03-08 01:22:00,
2013-03-07 20:33:00,35.0,24.0,30.28,NNW,329,2.0,6.0,63,0.00,,,0.00,,2013-03-08 01:33:00,
2013-03-07 20:42:00,35.0,24.0,30.28,NNW,329,2.0,6.0,63,0.00,,,0.00,,2013-03-08 01:42:00,
2013-03-07 20:52:00,35.0,24.0,30.28,NW,306,3.0,4.0,63,0.00,,,0.00,,2013-03-08 01:52:00,
2013-03-07 21:01:00,35.0,24.0,30.28,NW,306,3.0,4.0,63,0.00,,,0.00,,2013-03-08 02:01:00,
2013-03-07 21:12:00,34.0,23.0,30.28,NNW,345,2.0,6.0,64,0.00,,,0.00,,2013-03-08 02:12:00,
2013-03-07 21:22:00,34.0,23.0,30.28,NNW,345,2.0,6.0,64,0.00,,,0.00,,2013-03-08 02:22:00,
2013-03-07 21:32:00,34.0,23.0,30.28,NNW,327,2.0,4.0,64,0.00,,,0.00,,2013-03-08 02:32:00,
2013-03-07 21:42:00,34.0,23.0,30.28,NNW,327,2.0,4.0,64,0.00,,,0.00,,2013-03-08 02:42:00,
2013-03-07 21:53:00,34.0,23.0,30.28,NW,318,1.0,9.0,64,0.00,,,0.00,,2013-03-08 02:53:00,
2013-03-07 22:02:00,34.0,23.0,30.28,NW,313,2.0,4.0,64,0.00,,,0.00,,2013-03-08 03:02:00,
2013-03-07 22:12:00,34.0,23.0,30.28,NW,313,2.0,4.0,64,0.00,,,0.00,,2013-03-08 03:12:00,
2013-03-07 22:22:00,33.0,23.0,30.29,NW,307,1.0,4.0,66,0.00,,,0.00,,2013-03-08 03:22:00,
2013-03-07 22:32:00,33.0,23.0,30.29,NW,315,2.0,5.0,67,0.00,,,0.00,,2013-03-08 03:32:00,
2013-03-07 22:43:00,33.0,23.0,30.29,NW,315,2.0,5.0,67,0.00,,,0.00,,2013-03-08 03:43:00,
2013-03-07 22:53:00,33.0,23.0,30.29,NW,319,1.0,3.0,67,0.00,,,0.00,,2013-03-08 03:53:00,
2013-03-07 23:02:00,32.0,22.0,30.29,North,5,1.0,2.0,66,0.00,,,0.00,,2013-03-08 04:02:00,
2013-03-07 23:11:00,32.0,22.0,30.29,North,5,1.0,2.0,66,0.00,,,0.00,,2013-03-08 04:11:00,
2013-03-07 23:22:00,32.0,22.0,30.28,NW,312,1.0,3.0,67,0.00,,,0.00,,2013-03-08 04:22:00,
2013-03-07 23:32:00,32.0,22.0,30.29,NNW,327,2.0,3.0,66,0.00,,,0.00,,2013-03-08 04:32:00,
2013-03-07 23:42:00,32.0,22.0,30.29,NNW,327,2.0,3.0,66,0.00,,,0.00,,2013-03-08 04:42:00,
2013-03-07 23:52:00,32.0,22.0,30.28,NW,316,0.0,3.0,67,0.00,,,0.00,,2013-03-08 04:52:00,